User: anonymous   Login
Location: Kershaw
(34.5481°N, 80.5823°W)
Time: 13:07:19
(UTC+00:00)
Language:

Explorer 7 - Orbit

View from above orbital plane
View from above orbital plane
View from above satellite
View from above satellite

Ground track
Ground track

The orbit data is extracted from the following two-line orbital elements,

1 00022U 59009A   22277.86856044  .00004669  00000-0  35084-3 0  9996
2 00022  50.2816 118.8635 0133582 229.7486 129.1718 14.97517610596022
Epoch (UTC): 04 October 2022 20:50:43
Eccentricity: 0.0133582
inclination: 50.2816°
perigee height: 482 km
apogee height: 667 km
right ascension of ascending node: 118.8635°
argument of perigee: 229.7486°
revolutions per day: 14.97517610
mean anomaly at epoch: 129.1718°
orbit number at epoch: 59602

The dashed part of the orbit path shows where the satellite is in the earth's shadow,  

DLR